JST821 YBBN-YSSY

Flight info

Callsign JST821
Flight time 1h 13m
Altitude 38000
Route BN H91 IGDAM/N0435F370 H652 TESAT
Aircraft A320/M-SDE3FGHIRWY/LB1

Departure

Time 2026-05-08 01:30
Airport Brisbane International Airport (YBBN)

Arrival

Time 2026-05-08 02:43
Airport Sydney Kingsford Smith International Airport (YSSY)
Time Latitude Longitude Altitude Speed Heading
2026-05-08 01:01 -27.38530 153.12122 18 ft 0 kts 295°
2026-05-08 01:21 -27.38535 153.12132 18 ft 4 kts 290°
2026-05-08 01:21 -27.38540 153.12161 20 ft 4 kts 262°
2026-05-08 01:22 -27.38531 153.12188 20 ft 4 kts 230°
2026-05-08 01:22 -27.38512 153.12208 18 ft 3 kts 219°
2026-05-08 01:22 -27.38496 153.12224 21 ft 4 kts 235°
2026-05-08 01:22 -27.38486 153.12250 18 ft 4 kts 266°
2026-05-08 01:23 -27.38489 153.12279 20 ft 3 kts 295°
2026-05-08 01:23 -27.38490 153.12282 20 ft 0 kts 296°
2026-05-08 01:25 -27.38484 153.12273 19 ft 3 kts 309°
2026-05-08 01:25 -27.38459 153.12263 18 ft 5 kts
2026-05-08 01:25 -27.38435 153.12296 18 ft 7 kts 82°
2026-05-08 01:26 -27.38433 153.12360 18 ft 9 kts 90°
2026-05-08 01:26 -27.38454 153.12440 18 ft 12 kts 117°
2026-05-08 01:26 -27.38423 153.12520 19 ft 14 kts 27°
2026-05-08 01:26 -27.38329 153.12571 19 ft 16 kts 25°
2026-05-08 01:27 -27.38220 153.12634 18 ft 19 kts 27°
2026-05-08 01:27 -27.38095 153.12705 19 ft 21 kts 26°
2026-05-08 01:27 -27.37954 153.12785 18 ft 24 kts 27°
2026-05-08 01:27 -27.37797 153.12874 18 ft 27 kts 27°
2026-05-08 01:28 -27.37623 153.12974 18 ft 30 kts 27°
2026-05-08 01:28 -27.37444 153.13076 18 ft 26 kts 26°
2026-05-08 01:28 -27.37324 153.13145 18 ft 16 kts 28°
2026-05-08 01:28 -27.37269 153.13210 18 ft 12 kts 96°
2026-05-08 01:29 -27.37307 153.13305 18 ft 14 kts 115°
2026-05-08 01:29 -27.37365 153.13403 20 ft 16 kts 144°
2026-05-08 01:29 -27.37471 153.13426 23 ft 17 kts 197°
2026-05-08 01:29 -27.37610 153.13349 22 ft 43 kts 207°
2026-05-08 01:30 -27.38085 153.13077 23 ft 109 kts 207°
2026-05-08 01:30 -27.38921 153.12598 30 ft 158 kts 206°
2026-05-08 01:30 -27.39889 153.12045 667 ft 154 kts 207°
2026-05-08 01:30 -27.40845 153.11502 1424 ft 154 kts 206°
2026-05-08 01:31 -27.41830 153.10954 1866 ft 167 kts 205°
2026-05-08 01:31 -27.43049 153.10843 2125 ft 193 kts 162°
2026-05-08 01:31 -27.44330 153.11585 2400 ft 223 kts 151°
2026-05-08 01:31 -27.45740 153.12482 3095 ft 231 kts 150°
2026-05-08 01:32 -27.47128 153.13377 4148 ft 232 kts 153°
2026-05-08 01:32 -27.48554 153.14262 5047 ft 235 kts 158°
2026-05-08 01:32 -27.50098 153.14698 5938 ft 234 kts 180°
2026-05-08 01:32 -27.51775 153.14479 6457 ft 253 kts 195°
2026-05-08 01:33 -27.53523 153.13990 7201 ft 263 kts 195°
2026-05-08 01:33 -27.55326 153.13526 8045 ft 268 kts 195°
2026-05-08 01:33 -27.57111 153.12881 8884 ft 272 kts 200°
2026-05-08 01:33 -27.58915 153.12180 9770 ft 276 kts 200°
2026-05-08 01:34 -27.60762 153.11462 10369 ft 290 kts 201°
2026-05-08 01:34 -27.62748 153.10709 10682 ft 311 kts 199°
2026-05-08 01:34 -27.64848 153.09984 11304 ft 319 kts 199°
2026-05-08 01:34 -27.66998 153.09278 12023 ft 324 kts 198°
2026-05-08 01:35 -27.69182 153.08572 12754 ft 329 kts 198°
2026-05-08 01:35 -27.71365 153.07866 13460 ft 333 kts 198°
2026-05-08 01:35 -27.73564 153.07146 14151 ft 338 kts 199°
2026-05-08 01:35 -27.75878 153.06380 14808 ft 342 kts 199°
2026-05-08 01:36 -27.78172 153.05616 15457 ft 345 kts 199°
2026-05-08 01:36 -27.80427 153.04860 16084 ft 349 kts 200°
2026-05-08 01:36 -27.82751 153.04040 16720 ft 352 kts 202°
2026-05-08 01:36 -27.84982 153.03135 17348 ft 354 kts 204°
2026-05-08 01:37 -27.87339 153.02097 18017 ft 357 kts 205°
2026-05-08 01:37 -27.89655 153.01043 18644 ft 360 kts 206°
2026-05-08 01:37 -27.91963 152.99990 19229 ft 363 kts 206°
2026-05-08 01:37 -27.94291 152.98940 19811 ft 367 kts 206°
2026-05-08 01:38 -27.96676 152.97877 20414 ft 370 kts 206°
2026-05-08 01:38 -27.99081 152.96815 21002 ft 373 kts 207°
2026-05-08 01:38 -28.01511 152.95747 21576 ft 376 kts 207°
2026-05-08 01:38 -28.03960 152.94673 22142 ft 379 kts 207°
2026-05-08 01:39 -28.06432 152.93590 22716 ft 382 kts 207°
2026-05-08 01:39 -28.08925 152.92497 23278 ft 386 kts 208°
2026-05-08 01:39 -28.11434 152.91394 23848 ft 388 kts 208°
2026-05-08 01:39 -28.13960 152.90278 24322 ft 391 kts 209°
2026-05-08 01:40 -28.16463 152.89168 24817 ft 392 kts 209°
2026-05-08 01:40 -28.19007 152.88033 25277 ft 394 kts 210°
2026-05-08 01:40 -28.21569 152.86887 25728 ft 397 kts 210°
2026-05-08 01:40 -28.24146 152.85737 26185 ft 399 kts 211°
2026-05-08 01:41 -28.26736 152.84584 26646 ft 401 kts 211°
2026-05-08 01:41 -28.29345 152.83425 27091 ft 404 kts 212°
2026-05-08 01:41 -28.31969 152.82260 27531 ft 406 kts 212°
2026-05-08 01:41 -28.34606 152.81084 27979 ft 408 kts 212°
2026-05-08 01:42 -28.37254 152.79900 28423 ft 410 kts 212°
2026-05-08 01:42 -28.39915 152.78710 28760 ft 413 kts 212°
2026-05-08 01:42 -28.42557 152.77525 29098 ft 415 kts 212°
2026-05-08 01:42 -28.45254 152.76315 29525 ft 418 kts 213°
2026-05-08 01:43 -28.47968 152.75102 29928 ft 420 kts 213°
2026-05-08 01:43 -28.50694 152.73887 30289 ft 423 kts 213°
2026-05-08 01:43 -28.53440 152.72664 30580 ft 425 kts 213°
2026-05-08 01:43 -28.56198 152.71429 30913 ft 427 kts 213°
2026-05-08 01:44 -28.58966 152.70188 31258 ft 428 kts 213°
2026-05-08 01:44 -28.61743 152.68943 31637 ft 430 kts 212°
2026-05-08 01:44 -28.64532 152.67695 32054 ft 430 kts 213°
2026-05-08 01:44 -28.67311 152.66453 32540 ft 428 kts 213°
2026-05-08 01:45 -28.70076 152.65214 33062 ft 426 kts 214°
2026-05-08 01:45 -28.72787 152.63996 33543 ft 424 kts 214°
2026-05-08 01:45 -28.75524 152.62766 34060 ft 422 kts 215°
2026-05-08 01:45 -28.78249 152.61542 34506 ft 420 kts 215°
2026-05-08 01:46 -28.80964 152.60321 34905 ft 419 kts 216°
2026-05-08 01:46 -28.83669 152.59102 35305 ft 418 kts 216°
2026-05-08 01:46 -28.86273 152.57741 35666 ft 406 kts 221°
2026-05-08 01:46 -28.88777 152.56251 36024 ft 405 kts 221°
2026-05-08 01:47 -28.91273 152.54766 36365 ft 405 kts 222°
2026-05-08 01:47 -28.93769 152.53281 36702 ft 404 kts 222°
2026-05-08 01:47 -28.96229 152.51817 36994 ft 404 kts 222°
2026-05-08 01:48 -29.01205 152.48843 37555 ft 403 kts 222°
2026-05-08 01:48 -29.03686 152.47356 37891 ft 403 kts 223°
2026-05-08 01:48 -29.06170 152.45868 38144 ft 404 kts 223°
2026-05-08 01:48 -29.08660 152.44379 38145 ft 403 kts 223°
2026-05-08 01:49 -29.13624 152.41423 38145 ft 402 kts 222°
2026-05-08 01:49 -29.18579 152.38475 38141 ft 402 kts 223°
2026-05-08 01:50 -29.23495 152.35527 38136 ft 402 kts 223°
2026-05-08 01:50 -29.28442 152.32550 38135 ft 401 kts 223°
2026-05-08 01:51 -29.33389 152.29585 38172 ft 402 kts 222°
2026-05-08 01:51 -29.38356 152.26612 38170 ft 403 kts 222°
2026-05-08 01:52 -29.43316 152.23636 38154 ft 402 kts 222°
2026-05-08 01:52 -29.48224 152.20683 38159 ft 401 kts 222°
2026-05-08 01:53 -29.53171 152.17702 38148 ft 401 kts 222°
2026-05-08 01:53 -29.58098 152.14728 38140 ft 400 kts 222°
2026-05-08 01:54 -29.63027 152.11750 38143 ft 401 kts 222°
2026-05-08 01:54 -29.67969 152.08765 38144 ft 401 kts 222°
2026-05-08 01:55 -29.70511 152.07445 38144 ft 417 kts 213°
2026-05-08 01:55 -29.73380 152.06592 38146 ft 429 kts 207°
2026-05-08 01:55 -29.79209 152.05089 38134 ft 428 kts 207°
2026-05-08 01:56 -29.85020 152.03588 38132 ft 428 kts 207°
2026-05-08 01:56 -29.90842 152.02064 38135 ft 429 kts 208°
2026-05-08 01:57 -29.96628 152.00548 38141 ft 430 kts 207°
2026-05-08 01:57 -30.02455 151.99024 38160 ft 429 kts 207°
2026-05-08 01:58 -30.08280 151.97498 38159 ft 429 kts 207°
2026-05-08 01:58 -30.14114 151.95971 38156 ft 430 kts 207°
2026-05-08 01:59 -30.19949 151.94439 38160 ft 430 kts 207°
2026-05-08 01:59 -30.25741 151.92906 38157 ft 430 kts 207°
2026-05-08 02:00 -30.31574 151.91359 38173 ft 427 kts 210°
2026-05-08 02:00 -30.34326 151.90259 38168 ft 414 kts 216°
2026-05-08 02:00 -30.36998 151.89026 38172 ft 414 kts 216°
2026-05-08 02:01 -30.42339 151.86532 38177 ft 414 kts 216°
2026-05-08 02:01 -30.47669 151.84034 38165 ft 412 kts 215°
2026-05-08 02:02 -30.52951 151.81575 38159 ft 412 kts 215°
2026-05-08 02:02 -30.58273 151.79098 38173 ft 413 kts 215°
2026-05-08 02:03 -30.63602 151.76605 38179 ft 413 kts 215°
2026-05-08 02:03 -30.68935 151.74102 38194 ft 413 kts 215°
2026-05-08 02:04 -30.74265 151.71606 38183 ft 413 kts 214°
2026-05-08 02:04 -30.79594 151.69116 38185 ft 413 kts 214°
2026-05-08 02:05 -30.84922 151.66620 38200 ft 413 kts 215°
2026-05-08 02:05 -30.90212 151.64133 38230 ft 412 kts 214°
2026-05-08 02:06 -30.95510 151.61652 38182 ft 409 kts 214°
2026-05-08 02:06 -31.00791 151.59171 38187 ft 409 kts 214°
2026-05-08 02:07 -31.06064 151.56678 38210 ft 409 kts 214°
2026-05-08 02:07 -31.11304 151.54200 38209 ft 409 kts 214°
2026-05-08 02:08 -31.15717 151.52117 38203 ft 407 kts 214°
2026-05-08 02:08 -31.20952 151.49640 38199 ft 406 kts 214°
2026-05-08 02:09 -31.26155 151.47172 38200 ft 407 kts 214°
2026-05-08 02:09 -31.31395 151.44677 38224 ft 407 kts 214°
2026-05-08 02:10 -31.36634 151.42190 38207 ft 405 kts 214°
2026-05-08 02:10 -31.41865 151.39745 38206 ft 406 kts 213°
2026-05-08 02:11 -31.47155 151.37390 38204 ft 407 kts 212°
2026-05-08 02:11 -31.52427 151.35077 38195 ft 407 kts 212°
2026-05-08 02:12 -31.57729 151.32719 38226 ft 407 kts 212°
2026-05-08 02:12 -31.63032 151.30342 38207 ft 409 kts 212°
2026-05-08 02:13 -31.68342 151.27947 38200 ft 409 kts 212°
2026-05-08 02:13 -31.73666 151.25555 38207 ft 410 kts 212°
2026-05-08 02:14 -31.78994 151.23167 38227 ft 410 kts 211°
2026-05-08 02:14 -31.84291 151.20785 38244 ft 410 kts 211°
2026-05-08 02:15 -31.89621 151.18384 38193 ft 409 kts 211°
2026-05-08 02:15 -31.94942 151.15983 38196 ft 410 kts 211°
2026-05-08 02:16 -31.97626 151.14768 37990 ft 418 kts 211°
2026-05-08 02:16 -32.00351 151.13539 37746 ft 420 kts 210°
2026-05-08 02:16 -32.03090 151.12317 37479 ft 421 kts 210°
2026-05-08 02:16 -32.05790 151.11119 37213 ft 419 kts 210°
2026-05-08 02:17 -32.08512 151.09907 36957 ft 416 kts 210°
2026-05-08 02:17 -32.11214 151.08698 36698 ft 414 kts 210°
2026-05-08 02:17 -32.13892 151.07498 36425 ft 409 kts 210°
2026-05-08 02:17 -32.16542 151.06310 36012 ft 406 kts 209°
2026-05-08 02:18 -32.19166 151.05130 35591 ft 402 kts 209°
2026-05-08 02:18 -32.21772 151.03955 35174 ft 399 kts 209°
2026-05-08 02:18 -32.24360 151.02785 34726 ft 397 kts 208°
2026-05-08 02:18 -32.26929 151.01623 34291 ft 394 kts 208°
2026-05-08 02:19 -32.29485 151.00470 33813 ft 392 kts 207°
2026-05-08 02:19 -32.32019 150.99326 33372 ft 387 kts 207°
2026-05-08 02:19 -32.34525 150.98195 32939 ft 383 kts 207°
2026-05-08 02:19 -32.36969 150.97090 32514 ft 379 kts 208°
2026-05-08 02:20 -32.39422 150.95979 32097 ft 376 kts 208°
2026-05-08 02:20 -32.41848 150.94883 31695 ft 372 kts 207°
2026-05-08 02:20 -32.44255 150.93798 31289 ft 368 kts 207°
2026-05-08 02:20 -32.46641 150.92721 30868 ft 366 kts 207°
2026-05-08 02:21 -32.49090 150.91853 30400 ft 372 kts 197°
2026-05-08 02:21 -32.51706 150.91635 29913 ft 383 kts 185°
2026-05-08 02:21 -32.54367 150.92033 29454 ft 385 kts 179°
2026-05-08 02:21 -32.57006 150.92506 29011 ft 383 kts 179°
2026-05-08 02:22 -32.59630 150.92974 28568 ft 380 kts 179°
2026-05-08 02:22 -32.62231 150.93437 28141 ft 377 kts 179°
2026-05-08 02:22 -32.64820 150.93896 27697 ft 375 kts 179°
2026-05-08 02:22 -32.67366 150.94347 27255 ft 374 kts 179°
2026-05-08 02:23 -32.69939 150.94806 26800 ft 373 kts 179°
2026-05-08 02:23 -32.72501 150.95263 26332 ft 372 kts 178°
2026-05-08 02:23 -32.75060 150.95715 25876 ft 371 kts 178°
2026-05-08 02:23 -32.77606 150.96163 25429 ft 369 kts 178°
2026-05-08 02:24 -32.80133 150.96609 25035 ft 366 kts 178°
2026-05-08 02:24 -32.82633 150.97055 24537 ft 358 kts 178°
2026-05-08 02:24 -32.85060 150.97493 24062 ft 347 kts 178°
2026-05-08 02:24 -32.87445 150.97922 23589 ft 347 kts 178°
2026-05-08 02:25 -32.89794 150.98340 23107 ft 344 kts 178°
2026-05-08 02:25 -32.92117 150.98752 22675 ft 339 kts 178°
2026-05-08 02:25 -32.94414 150.99164 22230 ft 328 kts 179°
2026-05-08 02:25 -32.96633 150.99564 21799 ft 317 kts 179°
2026-05-08 02:26 -32.98781 150.99951 21399 ft 309 kts 179°
2026-05-08 02:26 -33.00904 151.00326 20995 ft 308 kts 179°
2026-05-08 02:26 -33.03002 151.00694 20607 ft 307 kts 179°
2026-05-08 02:26 -33.05059 151.01058 20200 ft 306 kts 179°
2026-05-08 02:27 -33.07160 151.01432 19789 ft 305 kts 179°
2026-05-08 02:27 -33.09262 151.01805 19385 ft 305 kts 179°
2026-05-08 02:27 -33.11358 151.02177 18985 ft 304 kts 179°
2026-05-08 02:27 -33.13450 151.02552 18575 ft 304 kts 179°
2026-05-08 02:28 -33.15513 151.02923 18169 ft 304 kts 179°
2026-05-08 02:28 -33.17600 151.03293 17726 ft 302 kts 179°
2026-05-08 02:28 -33.19673 151.03662 17319 ft 301 kts 179°
2026-05-08 02:28 -33.21736 151.04031 16919 ft 299 kts 179°
2026-05-08 02:29 -33.23787 151.04405 16542 ft 297 kts 179°
2026-05-08 02:29 -33.25823 151.04784 16119 ft 296 kts 179°
2026-05-08 02:29 -33.27851 151.05170 15723 ft 294 kts 179°
2026-05-08 02:29 -33.29863 151.05561 15343 ft 292 kts 179°
2026-05-08 02:30 -33.31868 151.05950 14948 ft 292 kts 180°
2026-05-08 02:30 -33.33871 151.06334 14561 ft 291 kts 179°
2026-05-08 02:30 -33.35866 151.06717 14178 ft 290 kts 179°
2026-05-08 02:30 -33.37851 151.07097 13795 ft 289 kts 179°
2026-05-08 02:31 -33.39833 151.07478 13367 ft 288 kts 179°
2026-05-08 02:31 -33.41811 151.07859 12971 ft 287 kts 178°
2026-05-08 02:31 -33.43762 151.08238 12551 ft 281 kts 178°
2026-05-08 02:31 -33.45649 151.08603 12141 ft 277 kts 178°
2026-05-08 02:32 -33.47549 151.08964 11742 ft 277 kts 178°
2026-05-08 02:32 -33.49448 151.09324 11369 ft 276 kts 178°
2026-05-08 02:32 -33.51341 151.09684 10984 ft 276 kts 178°
2026-05-08 02:32 -33.53236 151.10048 10616 ft 276 kts 177°
2026-05-08 02:33 -33.55133 151.10416 10226 ft 277 kts 177°
2026-05-08 02:33 -33.57032 151.10785 9837 ft 277 kts 177°
2026-05-08 02:33 -33.58937 151.11152 9435 ft 277 kts 176°
2026-05-08 02:33 -33.60811 151.11514 9064 ft 267 kts 176°
2026-05-08 02:34 -33.62606 151.11868 8687 ft 259 kts 175°
2026-05-08 02:34 -33.64416 151.12222 8310 ft 266 kts 175°
2026-05-08 02:34 -33.66224 151.12578 7881 ft 261 kts 175°
2026-05-08 02:34 -33.68016 151.12936 7505 ft 262 kts 174°
2026-05-08 02:35 -33.69744 151.13577 7108 ft 267 kts 159°
2026-05-08 02:35 -33.71283 151.14806 6692 ft 267 kts 142°
2026-05-08 02:35 -33.72574 151.16406 6260 ft 267 kts 139°
2026-05-08 02:35 -33.73842 151.18022 5825 ft 264 kts 138°
2026-05-08 02:36 -33.75094 151.19621 5429 ft 262 kts 139°
2026-05-08 02:36 -33.76340 151.21210 5014 ft 260 kts 139°
2026-05-08 02:36 -33.77580 151.22789 4589 ft 258 kts 139°
2026-05-08 02:36 -33.78808 151.24353 4191 ft 257 kts 139°
2026-05-08 02:37 -33.80038 151.25919 3778 ft 258 kts 140°
2026-05-08 02:37 -33.81245 151.27460 3641 ft 246 kts 140°
2026-05-08 02:37 -33.82380 151.28920 3566 ft 232 kts 140°
2026-05-08 02:37 -33.83449 151.30296 3462 ft 218 kts 140°
2026-05-08 02:38 -33.84457 151.31592 3364 ft 206 kts 141°
2026-05-08 02:38 -33.85410 151.32813 3260 ft 195 kts 142°
2026-05-08 02:38 -33.86296 151.33948 3182 ft 182 kts 142°
2026-05-08 02:38 -33.87234 151.34792 3084 ft 159 kts 165°
2026-05-08 02:39 -33.88276 151.35031 2806 ft 145 kts 190°
2026-05-08 02:39 -33.89201 151.34749 2693 ft 133 kts 210°
2026-05-08 02:39 -33.89921 151.34105 2608 ft 128 kts 227°
2026-05-08 02:39 -33.90386 151.33189 2454 ft 131 kts 249°
2026-05-08 02:40 -33.90642 151.32133 2295 ft 132 kts 253°
2026-05-08 02:40 -33.90894 151.31069 2129 ft 132 kts 254°
2026-05-08 02:40 -33.91144 151.30016 1958 ft 130 kts 253°
2026-05-08 02:40 -33.91392 151.28969 1755 ft 130 kts 253°
2026-05-08 02:41 -33.91638 151.27930 1590 ft 131 kts 255°
2026-05-08 02:41 -33.91879 151.26914 1422 ft 124 kts 255°
2026-05-08 02:41 -33.92114 151.25923 1266 ft 123 kts 254°
2026-05-08 02:41 -33.92345 151.24948 1097 ft 121 kts 255°
2026-05-08 02:42 -33.92580 151.23960 912 ft 121 kts 254°
2026-05-08 02:42 -33.92810 151.22988 769 ft 121 kts 253°
2026-05-08 02:42 -33.93039 151.22016 589 ft 122 kts 253°
2026-05-08 02:42 -33.93271 151.21033 442 ft 123 kts 258°
2026-05-08 02:43 -33.93502 151.20034 258 ft 123 kts 257°
2026-05-08 02:43 -33.93737 151.19052 89 ft 121 kts 256°
2026-05-08 02:43 -33.93953 151.18116 31 ft 102 kts 255°
2026-05-08 02:43 -33.94079 151.17612 28 ft 23 kts 254°
2026-05-08 02:44 -33.94121 151.17453 27 ft 17 kts 255°
2026-05-08 02:44 -33.94143 151.17336 28 ft 12 kts 261°
2026-05-08 02:44 -33.94117 151.17267 29 ft 7 kts 324°
2026-05-08 02:44 -33.94075 151.17252 29 ft 7 kts 346°
2026-05-08 02:45 -33.94017 151.17236 29 ft 10 kts 348°
2026-05-08 02:45 -33.93957 151.17281 28 ft 14 kts 74°
2026-05-08 02:45 -33.93928 151.17409 27 ft 18 kts 75°
2026-05-08 02:45 -33.93892 151.17558 29 ft 19 kts 73°
2026-05-08 02:46 -33.93856 151.17701 30 ft 18 kts 73°
2026-05-08 02:46 -33.93807 151.17765 30 ft 11 kts 14°
2026-05-08 02:46 -33.93724 151.17788 30 ft 14 kts 13°
2026-05-08 02:46 -33.93651 151.17808 30 ft 8 kts 13°
2026-05-08 02:47 -33.93601 151.17822 30 ft 6 kts
2026-05-08 02:47 -33.93570 151.17807 30 ft 6 kts 286°
2026-05-08 02:47 -33.93565 151.17773 30 ft 2 kts 279°
2026-05-08 02:47 -33.93563 151.17760 30 ft 1 kts 280°